Year,Month,Day,Hour,Minute,Value (Times are PST for temperature in C)
2015,09,20,00,00,16.80
2015,09,20,00,01,16.80
2015,09,20,00,02,16.80
2015,09,20,00,03,16.80
2015,09,20,00,04,16.80
2015,09,20,00,05,16.80
2015,09,20,00,06,16.80
2015,09,20,00,07,16.80
2015,09,20,00,08,16.80
2015,09,20,00,09,16.80
2015,09,20,00,10,16.70
2015,09,20,00,11,16.70
2015,09,20,00,12,16.80
2015,09,20,00,13,16.80
2015,09,20,00,14,16.80
2015,09,20,00,15,16.80
2015,09,20,00,16,16.80
2015,09,20,00,17,16.80
2015,09,20,00,18,16.80
2015,09,20,00,19,16.80
2015,09,20,00,20,16.80
2015,09,20,00,21,16.80
2015,09,20,00,22,16.80
2015,09,20,00,23,16.80
2015,09,20,00,24,16.80
2015,09,20,00,25,16.80
2015,09,20,00,26,16.80
2015,09,20,00,27,16.80
2015,09,20,00,28,16.80
2015,09,20,00,29,16.80
2015,09,20,00,30,16.90
2015,09,20,00,31,16.90
2015,09,20,00,32,16.90
2015,09,20,00,33,16.90
2015,09,20,00,34,16.90
2015,09,20,00,35,16.90
2015,09,20,00,36,17.00
2015,09,20,00,37,17.00
2015,09,20,00,38,17.10
2015,09,20,00,39,17.00
2015,09,20,00,40,17.10
2015,09,20,00,41,17.10
2015,09,20,00,42,17.10
2015,09,20,00,43,17.20
2015,09,20,00,44,17.30
2015,09,20,00,45,17.30
2015,09,20,00,46,17.30
2015,09,20,00,47,17.30
2015,09,20,00,48,17.30
2015,09,20,00,49,17.30
2015,09,20,00,50,17.40
2015,09,20,00,51,17.40
2015,09,20,00,52,17.50
2015,09,20,00,53,17.60
2015,09,20,00,54,17.70
2015,09,20,00,55,17.70
2015,09,20,00,56,17.80
2015,09,20,00,57,17.80
2015,09,20,00,58,17.80
2015,09,20,00,59,17.80
2015,09,20,01,00,17.80
2015,09,20,01,01,17.80
2015,09,20,01,02,17.80
2015,09,20,01,03,17.80
2015,09,20,01,04,17.80
2015,09,20,01,05,17.80
2015,09,20,01,06,17.80
2015,09,20,01,07,17.80
2015,09,20,01,08,17.80
2015,09,20,01,09,17.70
2015,09,20,01,10,17.70
2015,09,20,01,11,17.70
2015,09,20,01,12,17.70
2015,09,20,01,13,17.60
2015,09,20,01,14,17.60
2015,09,20,01,15,17.60
2015,09,20,01,16,17.50
2015,09,20,01,17,17.50
2015,09,20,01,18,17.50
2015,09,20,01,19,17.50
2015,09,20,01,20,17.60
2015,09,20,01,21,17.60
2015,09,20,01,22,17.60
2015,09,20,01,23,17.60
2015,09,20,01,24,17.70
2015,09,20,01,25,17.70
2015,09,20,01,26,17.70
2015,09,20,01,27,17.80
2015,09,20,01,28,17.80
2015,09,20,01,29,17.70
2015,09,20,01,30,17.70
2015,09,20,01,31,17.70
2015,09,20,01,32,17.60
2015,09,20,01,33,17.60
2015,09,20,01,34,17.60
2015,09,20,01,35,17.60
2015,09,20,01,36,17.50
2015,09,20,01,37,17.50
2015,09,20,01,38,17.50
2015,09,20,01,39,17.40
2015,09,20,01,40,17.40
2015,09,20,01,41,17.40
2015,09,20,01,42,17.40
2015,09,20,01,43,17.40
2015,09,20,01,44,17.40
2015,09,20,01,45,17.50
2015,09,20,01,46,17.70
2015,09,20,01,47,17.90
2015,09,20,01,48,18.00
2015,09,20,01,49,18.10
2015,09,20,01,50,18.00
2015,09,20,01,51,18.00
2015,09,20,01,52,17.90
2015,09,20,01,53,17.90
2015,09,20,01,54,17.80
2015,09,20,01,55,17.70
2015,09,20,01,56,17.70
2015,09,20,01,57,17.70
2015,09,20,01,58,17.60
2015,09,20,01,59,17.60
2015,09,20,02,00,17.70
2015,09,20,02,01,17.70
2015,09,20,02,02,17.80
2015,09,20,02,03,18.00
2015,09,20,02,04,18.30
2015,09,20,02,05,18.70
2015,09,20,02,06,19.00
2015,09,20,02,07,19.10
2015,09,20,02,08,19.20
2015,09,20,02,09,19.30
2015,09,20,02,10,19.30
2015,09,20,02,11,19.50
2015,09,20,02,12,19.60
2015,09,20,02,13,19.80
2015,09,20,02,14,20.00
2015,09,20,02,15,19.90
2015,09,20,02,16,19.80
2015,09,20,02,17,19.80
2015,09,20,02,18,19.80
2015,09,20,02,19,19.80
2015,09,20,02,20,19.70
2015,09,20,02,21,19.50
2015,09,20,02,22,19.40
2015,09,20,02,23,19.20
2015,09,20,02,24,19.00
2015,09,20,02,25,18.90
2015,09,20,02,26,18.70
2015,09,20,02,27,18.60
2015,09,20,02,28,18.50
2015,09,20,02,29,18.40
2015,09,20,02,30,18.20
2015,09,20,02,31,18.00
2015,09,20,02,32,17.80
2015,09,20,02,33,17.60
2015,09,20,02,34,17.50
2015,09,20,02,35,17.30
2015,09,20,02,36,17.20
2015,09,20,02,37,17.10
2015,09,20,02,38,17.10
2015,09,20,02,39,17.00
2015,09,20,02,40,16.90
2015,09,20,02,41,16.90
2015,09,20,02,42,16.80
2015,09,20,02,43,16.80
2015,09,20,02,44,16.80
2015,09,20,02,45,16.80
2015,09,20,02,46,16.70
2015,09,20,02,47,16.70
2015,09,20,02,48,16.70
2015,09,20,02,49,16.70
2015,09,20,02,50,16.70
2015,09,20,02,51,16.70
2015,09,20,02,52,16.70
2015,09,20,02,53,16.60
2015,09,20,02,54,16.60
2015,09,20,02,55,16.60
2015,09,20,02,56,16.60
2015,09,20,02,57,16.60
2015,09,20,02,58,16.60
2015,09,20,02,59,16.50
2015,09,20,03,00,16.50
2015,09,20,03,01,16.60
2015,09,20,03,02,16.60
2015,09,20,03,03,16.50
2015,09,20,03,04,16.60
2015,09,20,03,05,16.60
2015,09,20,03,06,16.60
2015,09,20,03,07,16.70
2015,09,20,03,08,16.80
2015,09,20,03,09,16.90
2015,09,20,03,10,17.10
2015,09,20,03,11,17.20
2015,09,20,03,12,17.30
2015,09,20,03,13,17.40
2015,09,20,03,14,17.50
2015,09,20,03,15,17.70
2015,09,20,03,16,17.80
2015,09,20,03,17,17.90
2015,09,20,03,18,17.90
2015,09,20,03,19,18.00
2015,09,20,03,20,18.00
2015,09,20,03,21,17.90
2015,09,20,03,22,17.90
2015,09,20,03,23,17.90
2015,09,20,03,24,17.90
2015,09,20,03,25,17.80
2015,09,20,03,26,17.70
2015,09,20,03,27,17.50
2015,09,20,03,28,17.30
2015,09,20,03,29,17.20
2015,09,20,03,30,17.10
2015,09,20,03,31,17.00
2015,09,20,03,32,16.90
2015,09,20,03,33,16.80
2015,09,20,03,34,16.70
2015,09,20,03,35,16.70
2015,09,20,03,36,16.70
2015,09,20,03,37,16.60
2015,09,20,03,38,16.60
2015,09,20,03,39,16.60
2015,09,20,03,40,16.60
2015,09,20,03,41,16.50
2015,09,20,03,42,16.50
2015,09,20,03,43,16.50
2015,09,20,03,44,16.50
2015,09,20,03,45,16.50
2015,09,20,03,46,16.40
2015,09,20,03,47,16.40
2015,09,20,03,48,16.40
2015,09,20,03,49,16.40
2015,09,20,03,50,16.40
2015,09,20,03,51,16.40
2015,09,20,03,52,16.40
2015,09,20,03,53,16.40
2015,09,20,03,54,16.40
2015,09,20,03,55,16.40
2015,09,20,03,56,16.40
2015,09,20,03,57,16.30
2015,09,20,03,58,16.30
2015,09,20,03,59,16.30
2015,09,20,04,00,16.30
2015,09,20,04,01,16.30
2015,09,20,04,02,16.30
2015,09,20,04,03,16.30
2015,09,20,04,04,16.30
2015,09,20,04,05,16.30
2015,09,20,04,06,16.40
2015,09,20,04,07,16.50
2015,09,20,04,08,16.70
2015,09,20,04,09,17.00
2015,09,20,04,10,17.20
2015,09,20,04,11,17.30
2015,09,20,04,12,17.50
2015,09,20,04,13,17.50
2015,09,20,04,14,17.60
2015,09,20,04,15,17.70
2015,09,20,04,16,17.70
2015,09,20,04,17,17.80
2015,09,20,04,18,17.90
2015,09,20,04,19,18.00
2015,09,20,04,20,18.10
2015,09,20,04,21,18.20
2015,09,20,04,22,18.20
2015,09,20,04,23,18.30
2015,09,20,04,24,18.30
2015,09,20,04,25,18.30
2015,09,20,04,26,18.40
2015,09,20,04,27,18.40
2015,09,20,04,28,18.40
2015,09,20,04,29,18.40
2015,09,20,04,30,18.40
2015,09,20,04,31,18.40
2015,09,20,04,32,18.50
2015,09,20,04,33,18.50
2015,09,20,04,34,18.60
2015,09,20,04,35,18.60
2015,09,20,04,36,18.60
2015,09,20,04,37,18.60
2015,09,20,04,38,18.60
2015,09,20,04,39,18.60
2015,09,20,04,40,18.60
2015,09,20,04,41,18.50
2015,09,20,04,42,18.50
2015,09,20,04,43,18.50
2015,09,20,04,44,18.40
2015,09,20,04,45,18.40
2015,09,20,04,46,18.30
2015,09,20,04,47,18.30
2015,09,20,04,48,18.30
2015,09,20,04,49,18.30
2015,09,20,04,50,18.20
2015,09,20,04,51,18.20
2015,09,20,04,52,18.20
2015,09,20,04,53,18.20
2015,09,20,04,54,18.10
2015,09,20,04,55,18.10
2015,09,20,04,56,18.10
2015,09,20,04,57,18.10
2015,09,20,04,58,18.20
2015,09,20,04,59,18.20
2015,09,20,05,00,18.20
2015,09,20,05,01,18.20
2015,09,20,05,02,18.20
2015,09,20,05,03,18.10
2015,09,20,05,04,18.20
2015,09,20,05,05,18.20
2015,09,20,05,06,18.20
2015,09,20,05,07,18.10
2015,09,20,05,08,18.10
2015,09,20,05,09,18.10
2015,09,20,05,10,18.10
2015,09,20,05,11,18.10
2015,09,20,05,12,18.10
2015,09,20,05,13,18.10
2015,09,20,05,14,18.10
2015,09,20,05,15,18.10
2015,09,20,05,16,18.10
2015,09,20,05,17,18.00
2015,09,20,05,18,18.00
2015,09,20,05,19,18.00
2015,09,20,05,20,18.00
2015,09,20,05,21,18.00
2015,09,20,05,22,18.00
2015,09,20,05,23,17.90
2015,09,20,05,24,17.90
2015,09,20,05,25,17.90
2015,09,20,05,26,17.90
2015,09,20,05,27,17.90
2015,09,20,05,28,17.90
2015,09,20,05,29,17.90
2015,09,20,05,30,17.90
2015,09,20,05,31,17.90
2015,09,20,05,32,17.90
2015,09,20,05,33,17.90
2015,09,20,05,34,17.90
2015,09,20,05,35,17.90
2015,09,20,05,36,17.90
2015,09,20,05,37,18.00
2015,09,20,05,38,18.00
2015,09,20,05,39,18.00
2015,09,20,05,40,18.00
2015,09,20,05,41,18.00
2015,09,20,05,42,18.00
2015,09,20,05,43,18.10
2015,09,20,05,44,18.10
2015,09,20,05,45,18.10
2015,09,20,05,46,18.20
2015,09,20,05,47,18.20
2015,09,20,05,48,18.20
2015,09,20,05,49,18.20
2015,09,20,05,50,18.30
2015,09,20,05,51,18.30
2015,09,20,05,52,18.20
2015,09,20,05,53,18.20
2015,09,20,05,54,18.20
2015,09,20,05,55,18.20
2015,09,20,05,56,18.20
2015,09,20,05,57,18.10
2015,09,20,05,58,18.10
2015,09,20,05,59,18.10
2015,09,20,06,00,18.10
2015,09,20,06,01,18.00
2015,09,20,06,02,18.00
2015,09,20,06,03,17.90
2015,09,20,06,04,17.90
2015,09,20,06,05,17.80
2015,09,20,06,06,17.80
2015,09,20,06,07,17.80
2015,09,20,06,08,17.80
2015,09,20,06,09,17.80
2015,09,20,06,10,17.70
2015,09,20,06,11,17.70
2015,09,20,06,12,17.70
2015,09,20,06,13,17.70
2015,09,20,06,14,17.70
2015,09,20,06,15,17.70
2015,09,20,06,16,17.70
2015,09,20,06,17,17.70
2015,09,20,06,18,17.70
2015,09,20,06,19,17.70
2015,09,20,06,20,17.70
2015,09,20,06,21,17.70
2015,09,20,06,22,17.80
2015,09,20,06,23,17.80
2015,09,20,06,24,17.80
2015,09,20,06,25,17.90
2015,09,20,06,26,17.90
2015,09,20,06,27,17.90
2015,09,20,06,28,17.90
2015,09,20,06,29,17.90
2015,09,20,06,30,17.90
2015,09,20,06,31,17.90
2015,09,20,06,32,17.90
2015,09,20,06,33,17.90
2015,09,20,06,34,17.80
2015,09,20,06,35,17.80
2015,09,20,06,36,17.90
2015,09,20,06,37,17.90
2015,09,20,06,38,17.90
2015,09,20,06,39,18.00
2015,09,20,06,40,18.00
2015,09,20,06,41,18.00
2015,09,20,06,42,18.00
2015,09,20,06,43,18.10
2015,09,20,06,44,18.10
2015,09,20,06,45,18.10
2015,09,20,06,46,18.00
2015,09,20,06,47,18.00
2015,09,20,06,48,18.00
2015,09,20,06,49,18.00
2015,09,20,06,50,18.00
2015,09,20,06,51,18.00
2015,09,20,06,52,18.00
2015,09,20,06,53,18.00
2015,09,20,06,54,18.00
2015,09,20,06,55,18.00
2015,09,20,06,56,17.90
2015,09,20,06,57,17.90
2015,09,20,06,58,17.90
2015,09,20,06,59,17.90
2015,09,20,07,00,17.90
2015,09,20,07,01,17.90
2015,09,20,07,02,17.90
2015,09,20,07,03,17.90
2015,09,20,07,04,17.90
2015,09,20,07,05,17.90
2015,09,20,07,06,17.90
2015,09,20,07,07,17.90
2015,09,20,07,08,17.90
2015,09,20,07,09,17.90
2015,09,20,07,10,17.90
2015,09,20,07,11,17.90
2015,09,20,07,12,17.90
2015,09,20,07,13,18.00
2015,09,20,07,14,18.00
2015,09,20,07,15,18.00
2015,09,20,07,16,18.10
2015,09,20,07,17,18.10
2015,09,20,07,18,18.10
2015,09,20,07,19,18.20
2015,09,20,07,20,18.20
2015,09,20,07,21,18.20
2015,09,20,07,22,18.20
2015,09,20,07,23,18.30
2015,09,20,07,24,18.30
2015,09,20,07,25,18.30
2015,09,20,07,26,18.20
2015,09,20,07,27,18.20
2015,09,20,07,28,18.20
2015,09,20,07,29,18.20
2015,09,20,07,30,18.20
2015,09,20,07,31,18.20
2015,09,20,07,32,18.20
2015,09,20,07,33,18.10
2015,09,20,07,34,18.10
2015,09,20,07,35,18.10
2015,09,20,07,36,18.10
2015,09,20,07,37,18.10
2015,09,20,07,38,18.10
2015,09,20,07,39,18.10
2015,09,20,07,40,18.10
2015,09,20,07,41,18.10
2015,09,20,07,42,18.10
2015,09,20,07,43,18.00
2015,09,20,07,44,18.00
2015,09,20,07,45,18.00
2015,09,20,07,46,18.00
2015,09,20,07,47,18.00
2015,09,20,07,48,18.00
2015,09,20,07,49,17.90
2015,09,20,07,50,17.90
2015,09,20,07,51,17.90
2015,09,20,07,52,17.90
2015,09,20,07,53,17.90
2015,09,20,07,54,17.90
2015,09,20,07,55,17.90
2015,09,20,07,56,17.90
2015,09,20,07,57,17.80
2015,09,20,07,58,17.80
2015,09,20,07,59,17.80
2015,09,20,08,00,17.80
2015,09,20,08,01,17.70
2015,09,20,08,02,17.70
2015,09,20,08,03,17.70
2015,09,20,08,04,17.70
2015,09,20,08,05,17.60
2015,09,20,08,06,17.60
2015,09,20,08,07,17.60
2015,09,20,08,08,17.60
2015,09,20,08,09,17.60
2015,09,20,08,10,17.60
2015,09,20,08,11,17.60
2015,09,20,08,12,17.60
2015,09,20,08,13,17.60
2015,09,20,08,14,17.60
2015,09,20,08,15,17.60
2015,09,20,08,16,17.60
2015,09,20,08,17,17.60
2015,09,20,08,18,17.60
2015,09,20,08,19,17.60
2015,09,20,08,20,17.60
2015,09,20,08,21,17.60
2015,09,20,08,22,17.60
2015,09,20,08,23,17.70
2015,09,20,08,24,17.60
2015,09,20,08,25,17.70
2015,09,20,08,26,17.60
2015,09,20,08,27,17.70
2015,09,20,08,28,17.70
2015,09,20,08,29,17.70
2015,09,20,08,30,17.70
2015,09,20,08,31,17.70
2015,09,20,08,32,17.70
2015,09,20,08,33,17.70
2015,09,20,08,34,17.70
2015,09,20,08,35,17.70
2015,09,20,08,36,17.70
2015,09,20,08,37,17.70
2015,09,20,08,38,17.70
2015,09,20,08,39,17.80
2015,09,20,08,40,17.80
2015,09,20,08,41,17.80
2015,09,20,08,42,17.80
2015,09,20,08,43,17.80
2015,09,20,08,44,17.80
2015,09,20,08,45,17.80
2015,09,20,08,46,17.80
2015,09,20,08,47,17.80
2015,09,20,08,48,17.80
2015,09,20,08,49,17.80
2015,09,20,08,50,17.80
2015,09,20,08,51,17.80
2015,09,20,08,52,17.80
2015,09,20,08,53,17.80
2015,09,20,08,54,17.80
2015,09,20,08,55,17.80
2015,09,20,08,56,17.80
2015,09,20,08,57,17.80
2015,09,20,08,58,17.70
2015,09,20,08,59,17.70
2015,09,20,09,00,17.70
2015,09,20,09,01,17.70
2015,09,20,09,02,17.70
2015,09,20,09,03,17.70
2015,09,20,09,04,17.70
2015,09,20,09,05,17.70
2015,09,20,09,06,17.80
2015,09,20,09,07,17.80
2015,09,20,09,08,17.90
2015,09,20,09,09,18.00
2015,09,20,09,10,18.00
2015,09,20,09,11,18.10
2015,09,20,09,12,18.20
2015,09,20,09,13,18.20
2015,09,20,09,14,18.30
2015,09,20,09,15,18.30
2015,09,20,09,16,18.40
2015,09,20,09,17,18.40
2015,09,20,09,18,18.40
2015,09,20,09,19,18.50
2015,09,20,09,20,18.50
2015,09,20,09,21,18.50
2015,09,20,09,22,18.50
2015,09,20,09,23,18.50
2015,09,20,09,24,18.60
2015,09,20,09,25,18.60
2015,09,20,09,26,18.60
2015,09,20,09,27,18.70
2015,09,20,09,28,18.70
2015,09,20,09,29,18.80
2015,09,20,09,30,18.80
2015,09,20,09,31,18.90
2015,09,20,09,32,19.00
2015,09,20,09,33,19.10
2015,09,20,09,34,19.20
2015,09,20,09,35,19.30
2015,09,20,09,36,19.40
2015,09,20,09,37,19.40
2015,09,20,09,38,19.50
2015,09,20,09,39,19.60
2015,09,20,09,40,19.60
2015,09,20,09,41,19.70
2015,09,20,09,42,19.70
2015,09,20,09,43,19.70
2015,09,20,09,44,19.60
2015,09,20,09,45,19.60
2015,09,20,09,46,19.60
2015,09,20,09,47,19.60
2015,09,20,09,48,19.50
2015,09,20,09,49,19.40
2015,09,20,09,50,19.40
2015,09,20,09,51,19.30
2015,09,20,09,52,19.20
2015,09,20,09,53,19.20
2015,09,20,09,54,19.20
2015,09,20,09,55,19.30
2015,09,20,09,56,19.30
2015,09,20,09,57,19.30
2015,09,20,09,58,19.30
2015,09,20,09,59,19.30
2015,09,20,10,00,19.30
2015,09,20,10,01,19.40
2015,09,20,10,02,19.40
2015,09,20,10,03,19.40
2015,09,20,10,04,19.30
2015,09,20,10,05,19.30
2015,09,20,10,06,19.30
2015,09,20,10,07,19.30
2015,09,20,10,08,19.30
2015,09,20,10,09,19.30
2015,09,20,10,10,19.30
2015,09,20,10,11,19.40
2015,09,20,10,12,19.40
2015,09,20,10,13,19.50
2015,09,20,10,14,19.50
2015,09,20,10,15,19.60
2015,09,20,10,16,19.70
2015,09,20,10,17,19.70
2015,09,20,10,18,19.70
2015,09,20,10,19,19.70
2015,09,20,10,20,19.70
2015,09,20,10,21,19.70
2015,09,20,10,22,19.70
2015,09,20,10,23,19.70
2015,09,20,10,24,19.70
2015,09,20,10,25,19.70
2015,09,20,10,26,19.70
2015,09,20,10,27,19.80
2015,09,20,10,28,19.80
2015,09,20,10,29,19.90
2015,09,20,10,30,19.90
2015,09,20,10,31,19.90
2015,09,20,10,32,19.90
2015,09,20,10,33,19.90
2015,09,20,10,34,19.90
2015,09,20,10,35,19.90
2015,09,20,10,36,20.00
2015,09,20,10,37,20.00
2015,09,20,10,38,19.90
2015,09,20,10,39,19.90
2015,09,20,10,40,19.90
2015,09,20,10,41,19.80
2015,09,20,10,42,19.80
2015,09,20,10,43,19.80
2015,09,20,10,44,19.80
2015,09,20,10,45,19.90
2015,09,20,10,46,19.90
2015,09,20,10,47,19.90
2015,09,20,10,48,20.00
2015,09,20,10,49,20.00
2015,09,20,10,50,20.10
2015,09,20,10,51,20.10
2015,09,20,10,52,20.10
2015,09,20,10,53,20.20
2015,09,20,10,54,20.20
2015,09,20,10,55,20.20
2015,09,20,10,56,20.30
2015,09,20,10,57,20.30
2015,09,20,10,58,20.30
2015,09,20,10,59,20.40
2015,09,20,11,00,20.40
2015,09,20,11,01,20.40
2015,09,20,11,02,20.40
2015,09,20,11,03,20.40
2015,09,20,11,04,20.40
2015,09,20,11,05,20.40
2015,09,20,11,06,20.40
2015,09,20,11,07,20.40
2015,09,20,11,08,20.40
2015,09,20,11,09,20.40
2015,09,20,11,10,20.40
2015,09,20,11,11,20.40
2015,09,20,11,12,20.40
2015,09,20,11,13,20.50
2015,09,20,11,14,20.60
2015,09,20,11,15,20.60
2015,09,20,11,16,20.60
2015,09,20,11,17,20.70
2015,09,20,11,18,20.70
2015,09,20,11,19,20.80
2015,09,20,11,20,20.90
2015,09,20,11,21,21.10
2015,09,20,11,22,21.30
2015,09,20,11,23,21.40
2015,09,20,11,24,21.60
2015,09,20,11,25,21.70
2015,09,20,11,26,21.80
2015,09,20,11,27,21.90
2015,09,20,11,28,21.90
2015,09,20,11,29,22.00
2015,09,20,11,30,22.10
2015,09,20,11,31,22.10
2015,09,20,11,32,22.20
2015,09,20,11,33,22.30
2015,09,20,11,34,22.30
2015,09,20,11,35,22.40
2015,09,20,11,36,22.60
2015,09,20,11,37,22.70
2015,09,20,11,38,22.80
2015,09,20,11,39,22.80
2015,09,20,11,40,22.90
2015,09,20,11,41,23.00
2015,09,20,11,42,23.10
2015,09,20,11,43,23.10
2015,09,20,11,44,23.20
2015,09,20,11,45,23.30
2015,09,20,11,46,23.30
2015,09,20,11,47,23.40
2015,09,20,11,48,23.40
2015,09,20,11,49,23.40
2015,09,20,11,50,23.50
2015,09,20,11,51,23.50
2015,09,20,11,52,23.60
2015,09,20,11,53,23.60
2015,09,20,11,54,23.70
2015,09,20,11,55,23.70
2015,09,20,11,56,23.70
2015,09,20,11,57,23.70
2015,09,20,11,58,23.70
2015,09,20,11,59,23.70
2015,09,20,12,00,23.70
2015,09,20,12,01,23.60
2015,09,20,12,02,23.60
2015,09,20,12,03,23.50
2015,09,20,12,04,23.50
2015,09,20,12,05,23.50
2015,09,20,12,06,23.50
2015,09,20,12,07,23.50
2015,09,20,12,08,23.50
2015,09,20,12,09,23.50
2015,09,20,12,10,23.50
2015,09,20,12,11,23.60
2015,09,20,12,12,23.60
2015,09,20,12,13,23.70
2015,09,20,12,14,23.70
2015,09,20,12,15,23.80
2015,09,20,12,16,23.80
2015,09,20,12,17,23.80
2015,09,20,12,18,23.80
2015,09,20,12,19,23.90
2015,09,20,12,20,23.80
2015,09,20,12,21,23.80
2015,09,20,12,22,23.80
2015,09,20,12,23,23.80
2015,09,20,12,24,23.80
2015,09,20,12,25,23.90
2015,09,20,12,26,23.90
2015,09,20,12,27,23.90
2015,09,20,12,28,24.00
2015,09,20,12,29,24.00
2015,09,20,12,30,24.10
2015,09,20,12,31,24.10
2015,09,20,12,32,24.20
2015,09,20,12,33,24.20
2015,09,20,12,34,24.20
2015,09,20,12,35,24.20
2015,09,20,12,36,24.20
2015,09,20,12,37,24.20
2015,09,20,12,38,24.20
2015,09,20,12,39,24.30
2015,09,20,12,40,24.30
2015,09,20,12,41,24.30
2015,09,20,12,42,24.30
2015,09,20,12,43,24.40
2015,09,20,12,44,24.40
2015,09,20,12,45,24.40
2015,09,20,12,46,24.40
2015,09,20,12,47,24.40
2015,09,20,12,48,24.40
2015,09,20,12,49,24.50
2015,09,20,12,50,24.60
2015,09,20,12,51,24.60
2015,09,20,12,52,24.70
2015,09,20,12,53,24.70
2015,09,20,12,54,24.80
2015,09,20,12,55,24.80
2015,09,20,12,56,24.80
2015,09,20,12,57,24.80
2015,09,20,12,58,24.80
2015,09,20,12,59,24.70
2015,09,20,13,00,24.70
2015,09,20,13,01,24.70
2015,09,20,13,02,24.70
2015,09,20,13,03,24.70
2015,09,20,13,04,24.70
2015,09,20,13,05,24.60
2015,09,20,13,06,24.60
2015,09,20,13,07,24.60
2015,09,20,13,08,24.60
2015,09,20,13,09,24.60
2015,09,20,13,10,24.50
2015,09,20,13,11,24.30
2015,09,20,13,12,24.10
2015,09,20,13,13,24.00
2015,09,20,13,14,24.00
2015,09,20,13,15,24.00
2015,09,20,13,16,23.90
2015,09,20,13,17,23.90
2015,09,20,13,18,23.90
2015,09,20,13,19,23.80
2015,09,20,13,20,23.80
2015,09,20,13,21,23.70
2015,09,20,13,22,23.50
2015,09,20,13,23,23.30
2015,09,20,13,24,22.80
2015,09,20,13,25,22.40
2015,09,20,13,26,22.00
2015,09,20,13,27,21.70
2015,09,20,13,28,21.40
2015,09,20,13,29,21.20
2015,09,20,13,30,20.90
2015,09,20,13,31,20.70
2015,09,20,13,32,20.50
2015,09,20,13,33,20.20
2015,09,20,13,34,19.90
2015,09,20,13,35,19.80
2015,09,20,13,36,19.50
2015,09,20,13,37,19.40
2015,09,20,13,38,19.30
2015,09,20,13,39,19.20
2015,09,20,13,40,19.10
2015,09,20,13,41,19.00
2015,09,20,13,42,19.00
2015,09,20,13,43,18.90
2015,09,20,13,44,18.80
2015,09,20,13,45,18.70
2015,09,20,13,46,18.50
2015,09,20,13,47,18.30
2015,09,20,13,48,18.20
2015,09,20,13,49,17.90
2015,09,20,13,50,17.70
2015,09,20,13,51,17.30
2015,09,20,13,52,17.00
2015,09,20,13,53,16.70
2015,09,20,13,54,16.40
2015,09,20,13,55,16.20
2015,09,20,13,56,16.00
2015,09,20,13,57,15.80
2015,09,20,13,58,15.70
2015,09,20,13,59,15.60
2015,09,20,14,00,15.50
2015,09,20,14,01,15.40
2015,09,20,14,02,15.30
2015,09,20,14,03,15.10
2015,09,20,14,04,15.00
2015,09,20,14,05,14.90
2015,09,20,14,06,14.80
2015,09,20,14,07,14.70
2015,09,20,14,08,14.60
2015,09,20,14,09,14.50
2015,09,20,14,10,14.40
2015,09,20,14,11,14.30
2015,09,20,14,12,14.20
2015,09,20,14,13,14.20
2015,09,20,14,14,14.20
2015,09,20,14,15,14.10
2015,09,20,14,16,14.10
2015,09,20,14,17,14.10
2015,09,20,14,18,14.00
2015,09,20,14,19,14.00
2015,09,20,14,20,13.90
2015,09,20,14,21,13.90
2015,09,20,14,22,14.00
2015,09,20,14,23,14.00
2015,09,20,14,24,13.90
2015,09,20,14,25,13.90
2015,09,20,14,26,13.90
2015,09,20,14,27,13.90
2015,09,20,14,28,13.90
2015,09,20,14,29,13.90
2015,09,20,14,30,14.00
2015,09,20,14,31,14.00
2015,09,20,14,32,14.00
2015,09,20,14,33,14.00
2015,09,20,14,34,13.90
2015,09,20,14,35,13.90
2015,09,20,14,36,13.80
2015,09,20,14,37,13.80
2015,09,20,14,38,13.80
2015,09,20,14,39,13.80
2015,09,20,14,40,13.80
2015,09,20,14,41,13.80
2015,09,20,14,42,13.80
2015,09,20,14,43,13.70
2015,09,20,14,44,13.70
2015,09,20,14,45,13.70
2015,09,20,14,46,13.70
2015,09,20,14,47,13.60
2015,09,20,14,48,13.50
2015,09,20,14,49,13.50
2015,09,20,14,50,13.40
2015,09,20,14,51,13.40
2015,09,20,14,52,13.30
2015,09,20,14,53,13.30
2015,09,20,14,54,13.30
2015,09,20,14,55,13.30
2015,09,20,14,56,13.20
2015,09,20,14,57,13.30
2015,09,20,14,58,13.30
2015,09,20,14,59,13.20
2015,09,20,15,00,13.20
2015,09,20,15,01,13.20
2015,09,20,15,02,13.20
2015,09,20,15,03,13.20
2015,09,20,15,04,13.20
2015,09,20,15,05,13.20
2015,09,20,15,06,13.10
2015,09,20,15,07,13.10
2015,09,20,15,08,13.10
2015,09,20,15,09,13.10
2015,09,20,15,10,13.10
2015,09,20,15,11,13.10
2015,09,20,15,12,13.10
2015,09,20,15,13,13.10
2015,09,20,15,14,13.10
2015,09,20,15,15,13.10
2015,09,20,15,16,13.10
2015,09,20,15,17,13.10
2015,09,20,15,18,13.10
2015,09,20,15,19,13.00
2015,09,20,15,20,13.00
2015,09,20,15,21,13.00
2015,09,20,15,22,13.00
2015,09,20,15,23,13.00
2015,09,20,15,24,12.90
2015,09,20,15,25,12.90
2015,09,20,15,26,12.90
2015,09,20,15,27,12.90
2015,09,20,15,28,12.90
2015,09,20,15,29,12.90
2015,09,20,15,30,12.90
2015,09,20,15,31,12.80
2015,09,20,15,32,12.80
2015,09,20,15,33,12.70
2015,09,20,15,34,12.70
2015,09,20,15,35,12.70
2015,09,20,15,36,12.70
2015,09,20,15,37,12.70
2015,09,20,15,38,12.70
2015,09,20,15,39,12.70
2015,09,20,15,40,12.70
2015,09,20,15,41,12.70
2015,09,20,15,42,12.70
2015,09,20,15,43,12.70
2015,09,20,15,44,12.70
2015,09,20,15,45,12.70
2015,09,20,15,46,12.70
2015,09,20,15,47,12.70
2015,09,20,15,48,12.70
2015,09,20,15,49,12.70
2015,09,20,15,50,12.70
2015,09,20,15,51,12.70
2015,09,20,15,52,12.70
2015,09,20,15,53,12.70
2015,09,20,15,54,12.80
2015,09,20,15,55,12.80
2015,09,20,15,56,12.90
2015,09,20,15,57,13.00
2015,09,20,15,58,13.00
2015,09,20,15,59,13.00
2015,09,20,16,00,13.10
2015,09,20,16,01,13.10
2015,09,20,16,02,13.00
2015,09,20,16,03,13.00
2015,09,20,16,04,13.00
2015,09,20,16,05,13.00
2015,09,20,16,06,13.00
2015,09,20,16,07,12.90
2015,09,20,16,08,12.90
2015,09,20,16,09,12.90
2015,09,20,16,10,13.00
2015,09,20,16,11,13.00
2015,09,20,16,12,13.10
2015,09,20,16,13,13.10
2015,09,20,16,14,13.20
2015,09,20,16,15,13.20
2015,09,20,16,16,13.30
2015,09,20,16,17,13.30
2015,09,20,16,18,13.40
2015,09,20,16,19,13.50
2015,09,20,16,20,13.50
2015,09,20,16,21,13.60
2015,09,20,16,22,13.70
2015,09,20,16,23,13.80
2015,09,20,16,24,13.80
2015,09,20,16,25,13.90
2015,09,20,16,26,14.00
2015,09,20,16,27,14.00
2015,09,20,16,28,14.10
2015,09,20,16,29,14.20
2015,09,20,16,30,14.20
2015,09,20,16,31,14.30
2015,09,20,16,32,14.30
2015,09,20,16,33,14.30
2015,09,20,16,34,14.30
2015,09,20,16,35,14.40
2015,09,20,16,36,14.50
2015,09,20,16,37,14.50
2015,09,20,16,38,14.60
2015,09,20,16,39,14.60
2015,09,20,16,40,14.70
2015,09,20,16,41,14.70
2015,09,20,16,42,14.70
2015,09,20,16,43,14.70
2015,09,20,16,44,14.80
2015,09,20,16,45,14.80
2015,09,20,16,46,14.80
2015,09,20,16,47,14.80
2015,09,20,16,48,14.80
2015,09,20,16,49,14.80
2015,09,20,16,50,14.80
2015,09,20,16,51,14.80
2015,09,20,16,52,14.90
2015,09,20,16,53,14.90
2015,09,20,16,54,14.90
2015,09,20,16,55,14.90
2015,09,20,16,56,14.90
2015,09,20,16,57,14.90
2015,09,20,16,58,15.00
2015,09,20,16,59,15.00
2015,09,20,17,00,15.00
2015,09,20,17,01,15.00
2015,09,20,17,02,14.90
2015,09,20,17,03,14.90
2015,09,20,17,04,14.70
2015,09,20,17,05,14.70
2015,09,20,17,06,14.60
2015,09,20,17,07,14.50
2015,09,20,17,08,14.50
2015,09,20,17,09,14.40
2015,09,20,17,10,14.40
2015,09,20,17,11,14.30
2015,09,20,17,12,14.30
2015,09,20,17,13,14.30
2015,09,20,17,14,14.20
2015,09,20,17,15,14.20
2015,09,20,17,16,14.20
2015,09,20,17,17,14.20
2015,09,20,17,18,14.10
2015,09,20,17,19,14.10